Time,TemperatureF,DewpointF,PressureIn,WindDirection,WindDirectionDegrees,WindSpeedMPH,WindSpeedGustMPH,Humidity,HourlyPrecipIn,Conditions,Clouds,dailyrainin,SoftwareType,DateUTC
2013-02-27 00:12:00,59.6,59.0,29.62,WNW,290,4.0,11.0,96,0.00,,,0.00,weatherlink.com 1.10,2013-02-27 05:12:00,
2013-02-27 00:27:00,60.3,59.0,29.63,WNW,290,7.0,9.0,95,0.00,,,0.00,weatherlink.com 1.10,2013-02-27 05:27:00,
2013-02-27 00:42:00,60.2,59.0,29.63,WNW,295,3.0,8.0,95,0.00,,,0.00,weatherlink.com 1.10,2013-02-27 05:42:00,
2013-02-27 00:57:00,60.0,59.0,29.64,WNW,299,4.0,7.0,95,0.00,,,0.00,weatherlink.com 1.10,2013-02-27 05:57:00,
2013-02-27 01:12:00,59.5,58.0,29.64,WNW,299,5.0,7.0,95,0.00,,,0.00,weatherlink.com 1.10,2013-02-27 06:12:00,
2013-02-27 01:27:00,58.9,58.0,29.64,WNW,300,5.0,8.0,95,0.00,,,0.00,weatherlink.com 1.10,2013-02-27 06:27:00,
2013-02-27 01:42:00,58.7,57.0,29.64,WNW,292,4.0,7.0,95,0.00,,,0.00,weatherlink.com 1.10,2013-02-27 06:42:00,
2013-02-27 01:57:00,58.3,57.0,29.64,NW,304,4.0,6.0,95,0.00,,,0.00,weatherlink.com 1.10,2013-02-27 06:57:00,
2013-02-27 02:12:00,57.9,57.0,29.66,West,277,2.0,5.0,95,0.00,,,0.00,weatherlink.com 1.10,2013-02-27 07:12:00,
2013-02-27 02:27:00,57.6,56.0,29.65,WNW,301,4.0,6.0,95,0.00,,,0.00,weatherlink.com 1.10,2013-02-27 07:27:00,
2013-02-27 02:42:00,57.1,56.0,29.65,West,281,5.0,7.0,95,0.00,,,0.00,weatherlink.com 1.10,2013-02-27 07:42:00,
2013-02-27 02:57:00,55.8,54.0,29.65,NW,306,8.0,14.0,93,0.00,,,0.00,weatherlink.com 1.10,2013-02-27 07:57:00,
2013-02-27 03:12:00,55.3,53.0,29.66,NW,314,4.0,10.0,90,0.00,,,0.00,weatherlink.com 1.10,2013-02-27 08:12:00,
2013-02-27 03:27:00,54.6,52.0,29.66,West,271,4.0,7.0,90,0.00,,,0.00,weatherlink.com 1.10,2013-02-27 08:27:00,
2013-02-27 03:42:00,54.1,51.0,29.66,WNW,298,5.0,8.0,90,0.00,,,0.00,weatherlink.com 1.10,2013-02-27 08:42:00,
2013-02-27 03:57:00,53.8,51.0,29.67,NNW,329,4.0,10.0,91,0.00,,,0.00,weatherlink.com 1.10,2013-02-27 08:57:00,
2013-02-27 04:12:00,53.6,51.0,29.68,WNW,293,14.0,18.0,89,0.00,,,0.00,weatherlink.com 1.10,2013-02-27 09:12:00,
2013-02-27 04:27:00,52.9,49.0,29.69,NW,304,11.0,22.0,86,0.00,,,0.00,weatherlink.com 1.10,2013-02-27 09:27:00,
2013-02-27 04:42:00,52.2,48.0,29.70,NW,311,7.0,20.0,85,0.00,,,0.00,weatherlink.com 1.10,2013-02-27 09:42:00,
2013-02-27 04:57:00,51.5,47.0,29.70,West,273,4.0,16.0,84,0.00,,,0.00,weatherlink.com 1.10,2013-02-27 09:57:00,
2013-02-27 05:12:00,50.9,46.0,29.71,WNW,285,9.0,12.0,84,0.00,,,0.00,weatherlink.com 1.10,2013-02-27 10:12:00,
2013-02-27 05:28:00,50.6,46.0,29.72,West,275,6.0,14.0,84,0.00,,,0.00,weatherlink.com 1.10,2013-02-27 10:28:00,
2013-02-27 05:43:00,50.3,45.0,29.71,WSW,258,10.0,13.0,82,0.00,,,0.00,weatherlink.com 1.10,2013-02-27 10:43:00,
2013-02-27 05:58:00,49.9,45.0,29.72,West,267,9.0,12.0,82,0.00,,,0.00,weatherlink.com 1.10,2013-02-27 10:58:00,
2013-02-27 06:13:00,49.9,44.0,29.72,NW,319,8.0,15.0,80,0.00,,,0.00,weatherlink.com 1.10,2013-02-27 11:13:00,
2013-02-27 06:28:00,49.2,43.0,29.72,West,281,7.0,14.0,80,0.00,,,0.00,weatherlink.com 1.10,2013-02-27 11:28:00,
2013-02-27 06:43:00,49.3,43.0,29.72,West,277,10.0,17.0,79,0.00,,,0.00,weatherlink.com 1.10,2013-02-27 11:43:00,
2013-02-27 06:58:00,49.4,43.0,29.73,West,263,5.0,17.0,78,0.00,,,0.00,weatherlink.com 1.10,2013-02-27 11:58:00,
2013-02-27 07:13:00,49.7,41.0,29.74,West,273,13.0,23.0,73,0.00,,,0.00,weatherlink.com 1.10,2013-02-27 12:13:00,
2013-02-27 07:28:00,49.5,42.0,29.75,WNW,295,15.0,23.0,74,0.00,,,0.00,weatherlink.com 1.10,2013-02-27 12:28:00,
2013-02-27 07:43:00,49.3,42.0,29.77,WNW,292,10.0,17.0,75,0.00,,,0.00,weatherlink.com 1.10,2013-02-27 12:43:00,
2013-02-27 07:58:00,49.2,42.0,29.77,WNW,293,11.0,16.0,76,0.00,,,0.00,weatherlink.com 1.10,2013-02-27 12:58:00,
2013-02-27 08:13:00,49.4,42.0,29.78,West,274,13.0,22.0,76,0.00,,,0.00,weatherlink.com 1.10,2013-02-27 13:13:00,
2013-02-27 08:28:00,49.8,42.0,29.79,WNW,290,14.0,23.0,74,0.00,,,0.00,weatherlink.com 1.10,2013-02-27 13:28:00,
2013-02-27 08:43:00,50.1,42.0,29.79,NW,306,20.0,22.0,73,0.00,,,0.00,weatherlink.com 1.10,2013-02-27 13:43:00,
2013-02-27 08:58:00,49.9,42.0,29.79,NW,325,14.0,23.0,74,0.00,,,0.00,weatherlink.com 1.10,2013-02-27 13:58:00,
2013-02-27 09:13:00,49.7,42.0,29.80,NNW,346,17.0,21.0,74,0.00,,,0.00,weatherlink.com 1.10,2013-02-27 14:13:00,
2013-02-27 09:28:00,49.8,41.0,29.80,NNW,347,14.0,20.0,73,0.00,,,0.00,weatherlink.com 1.10,2013-02-27 14:28:00,
2013-02-27 09:43:00,50.7,42.0,29.80,WNW,300,9.0,19.0,73,0.00,,,0.00,weatherlink.com 1.10,2013-02-27 14:43:00,
2013-02-27 09:58:00,51.0,43.0,29.80,WNW,290,9.0,18.0,73,0.00,,,0.00,weatherlink.com 1.10,2013-02-27 14:58:00,
2013-02-27 10:13:00,51.5,42.0,29.80,WNW,292,6.0,17.0,71,0.00,,,0.00,weatherlink.com 1.10,2013-02-27 15:13:00,
2013-02-27 10:28:00,52.4,43.0,29.81,WNW,302,8.0,18.0,71,0.00,,,0.00,weatherlink.com 1.10,2013-02-27 15:28:00,
2013-02-27 10:43:00,53.4,43.0,29.81,WNW,294,9.0,16.0,69,0.00,,,0.00,weatherlink.com 1.10,2013-02-27 15:43:00,
2013-02-27 10:58:00,53.6,44.0,29.80,NNW,346,7.0,15.0,70,0.00,,,0.00,weatherlink.com 1.10,2013-02-27 15:58:00,
2013-02-27 11:13:00,54.0,44.0,29.80,NW,310,4.0,13.0,68,0.00,,,0.00,weatherlink.com 1.10,2013-02-27 16:13:00,
2013-02-27 11:28:00,54.4,44.0,29.79,West,277,4.0,12.0,67,0.00,,,0.00,weatherlink.com 1.10,2013-02-27 16:28:00,
2013-02-27 11:43:00,54.9,44.0,29.80,North,5,5.0,12.0,67,0.00,,,0.00,weatherlink.com 1.10,2013-02-27 16:43:00,
2013-02-27 11:58:00,55.1,44.0,29.80,NW,312,10.0,13.0,67,0.00,,,0.00,weatherlink.com 1.10,2013-02-27 16:58:00,
2013-02-27 12:13:00,55.4,45.0,29.80,NW,310,8.0,10.0,67,0.00,,,0.00,weatherlink.com 1.10,2013-02-27 17:13:00,
2013-02-27 12:28:00,55.6,45.0,29.79,NW,311,6.0,10.0,67,0.00,,,0.00,weatherlink.com 1.10,2013-02-27 17:28:00,
2013-02-27 12:43:00,55.8,44.0,29.77,NNW,327,5.0,10.0,64,0.00,,,0.00,weatherlink.com 1.10,2013-02-27 17:43:00,
2013-02-27 12:58:00,56.4,43.0,29.76,North,360,3.0,9.0,61,0.00,,,0.00,weatherlink.com 1.10,2013-02-27 17:58:00,
2013-02-27 13:13:00,56.6,43.0,29.76,WNW,288,6.0,9.0,61,0.00,,,0.00,weatherlink.com 1.10,2013-02-27 18:13:00,
2013-02-27 13:28:00,57.1,46.0,29.76,WSW,258,2.0,9.0,66,0.00,,,0.00,weatherlink.com 1.10,2013-02-27 18:28:00,
2013-02-27 13:43:00,56.3,45.0,29.76,West,260,5.0,11.0,67,0.00,,,0.00,weatherlink.com 1.10,2013-02-27 18:43:00,
2013-02-27 13:59:00,55.1,46.0,29.76,SW,232,10.0,16.0,71,0.00,,,0.00,weatherlink.com 1.10,2013-02-27 18:59:00,
2013-02-27 14:13:00,55.1,47.0,29.76,SSW,205,7.0,15.0,75,0.00,,,0.00,weatherlink.com 1.10,2013-02-27 19:13:00,
2013-02-27 14:28:00,54.8,46.0,29.77,SW,223,6.0,14.0,73,0.00,,,0.00,weatherlink.com 1.10,2013-02-27 19:28:00,
2013-02-27 14:43:00,53.8,47.0,29.76,SW,221,6.0,18.0,77,0.00,,,0.00,weatherlink.com 1.10,2013-02-27 19:43:00,
2013-02-27 14:58:00,53.9,47.0,29.77,WSW,254,7.0,16.0,77,0.00,,,0.00,weatherlink.com 1.10,2013-02-27 19:58:00,
2013-02-27 15:14:00,53.8,47.0,29.76,SSW,208,6.0,13.0,78,0.00,,,0.00,weatherlink.com 1.10,2013-02-27 20:14:00,
2013-02-27 15:29:00,53.1,46.0,29.77,SW,234,8.0,21.0,78,0.00,,,0.00,weatherlink.com 1.10,2013-02-27 20:29:00,
2013-02-27 15:44:00,53.0,47.0,29.75,SW,233,7.0,17.0,79,0.00,,,0.00,weatherlink.com 1.10,2013-02-27 20:44:00,
2013-02-27 16:14:00,52.7,47.0,29.76,WSW,254,8.0,16.0,80,0.00,,,0.00,weatherlink.com 1.10,2013-02-27 21:14:00,
2013-02-27 16:29:00,52.7,47.0,29.76,West,268,9.0,17.0,80,0.00,,,0.00,weatherlink.com 1.10,2013-02-27 21:29:00,
2013-02-27 16:44:00,52.8,47.0,29.76,SW,236,7.0,14.0,81,0.00,,,0.00,weatherlink.com 1.10,2013-02-27 21:44:00,
2013-02-27 16:59:00,52.8,47.0,29.76,SW,234,8.0,16.0,81,0.00,,,0.00,weatherlink.com 1.10,2013-02-27 21:59:00,
2013-02-27 17:14:00,52.8,47.0,29.75,WSW,244,5.0,15.0,81,0.00,,,0.00,weatherlink.com 1.10,2013-02-27 22:14:00,
2013-02-27 17:29:00,52.7,47.0,29.76,West,262,5.0,15.0,82,0.00,,,0.00,weatherlink.com 1.10,2013-02-27 22:29:00,
2013-02-27 17:44:00,52.6,47.0,29.75,WSW,255,10.0,17.0,81,0.00,,,0.00,weatherlink.com 1.10,2013-02-27 22:44:00,
2013-02-27 17:59:00,52.6,47.0,29.76,WSW,249,10.0,16.0,81,0.00,,,0.00,weatherlink.com 1.10,2013-02-27 22:59:00,
2013-02-27 18:14:00,52.3,47.0,29.75,West,261,9.0,17.0,81,0.00,,,0.00,weatherlink.com 1.10,2013-02-27 23:14:00,
2013-02-27 18:29:00,52.1,47.0,29.76,WSW,242,14.0,17.0,83,0.00,,,0.00,weatherlink.com 1.10,2013-02-27 23:29:00,
2013-02-27 18:44:00,52.0,47.0,29.77,WSW,258,12.0,16.0,83,0.00,,,0.00,weatherlink.com 1.10,2013-02-27 23:44:00,
2013-02-27 18:59:00,51.8,47.0,29.77,West,261,12.0,18.0,84,0.00,,,0.00,weatherlink.com 1.10,2013-02-27 23:59:00,
2013-02-27 19:14:00,51.8,47.0,29.77,West,281,10.0,17.0,83,0.00,,,0.00,weatherlink.com 1.10,2013-02-28 00:14:00,
2013-02-27 19:29:00,51.7,47.0,29.77,WSW,246,5.0,17.0,83,0.00,,,0.00,weatherlink.com 1.10,2013-02-28 00:29:00,
2013-02-27 19:44:00,51.6,47.0,29.77,WSW,243,7.0,15.0,84,0.00,,,0.00,weatherlink.com 1.10,2013-02-28 00:44:00,
2013-02-27 19:59:00,51.6,47.0,29.77,WSW,248,10.0,15.0,84,0.00,,,0.00,weatherlink.com 1.10,2013-02-28 00:59:00,
2013-02-27 20:14:00,51.7,47.0,29.77,West,268,9.0,19.0,85,0.00,,,0.00,weatherlink.com 1.10,2013-02-28 01:14:00,
2013-02-27 20:29:00,51.5,48.0,29.76,West,265,6.0,15.0,86,0.00,,,0.00,weatherlink.com 1.10,2013-02-28 01:29:00,
2013-02-27 20:44:00,51.4,47.0,29.77,West,263,3.0,13.0,86,0.00,,,0.00,weatherlink.com 1.10,2013-02-28 01:44:00,
2013-02-27 20:59:00,51.2,48.0,29.77,WSW,250,6.0,12.0,87,0.00,,,0.00,weatherlink.com 1.10,2013-02-28 01:59:00,
2013-02-27 21:14:00,51.2,48.0,29.77,West,279,5.0,12.0,87,0.00,,,0.00,weatherlink.com 1.10,2013-02-28 02:14:00,
2013-02-27 21:29:00,51.2,48.0,29.77,WSW,256,9.0,11.0,88,0.00,,,0.00,weatherlink.com 1.10,2013-02-28 02:29:00,
2013-02-27 21:44:00,51.1,48.0,29.77,West,269,8.0,11.0,88,0.00,,,0.00,weatherlink.com 1.10,2013-02-28 02:44:00,
2013-02-27 21:59:00,51.0,48.0,29.77,West,261,8.0,13.0,88,0.00,,,0.00,weatherlink.com 1.10,2013-02-28 02:59:00,
2013-02-27 22:14:00,51.2,48.0,29.76,West,270,8.0,14.0,89,0.00,,,0.00,weatherlink.com 1.10,2013-02-28 03:14:00,
2013-02-27 22:29:00,51.0,48.0,29.76,West,263,4.0,11.0,89,0.00,,,0.00,weatherlink.com 1.10,2013-02-28 03:29:00,
2013-02-27 22:44:00,50.8,48.0,29.76,WNW,287,5.0,10.0,89,0.00,,,0.00,weatherlink.com 1.10,2013-02-28 03:44:00,
2013-02-27 22:59:00,50.7,48.0,29.76,WSW,248,6.0,10.0,89,0.00,,,0.00,weatherlink.com 1.10,2013-02-28 03:59:00,
2013-02-27 23:29:00,50.9,48.0,29.75,WSW,252,8.0,11.0,90,0.00,,,0.00,weatherlink.com 1.10,2013-02-28 04:29:00,
2013-02-27 23:44:00,50.9,48.0,29.75,WSW,238,8.0,12.0,89,0.00,,,0.00,weatherlink.com 1.10,2013-02-28 04:44:00,
2013-02-27 23:59:00,50.7,48.0,29.75,West,259,6.0,12.0,89,0.00,,,0.00,weatherlink.com 1.10,2013-02-28 04:59:00,